, AK

(GMT )
Gustavus

Weather History for PAGS - October, 2013

Change the Weather History Date:

Tuesday, October 8, 2013

  Actual Average Record
Temperature  
Mean Temperature 41 °F -  
Max Temperature 50 °F 50 °F 57 °F (1984)
Min Temperature 32 °F 39 °F 24 °F (1957)
Degree Days  
Heating Degree Days 24    
Moisture  
Dew Point 40 °F    
Average Humidity 88    
Maximum Humidity 100    
Minimum Humidity 81    
Precipitation  
Precipitation 0.00 in - - ()
Sea Level Pressure  
Sea Level Pressure 29.91 in    
Wind  
Wind Speed 7 mph (SE)    
Max Wind Speed 26 mph    
Max Gust Speed 37 mph    
Visibility 10 miles    
Events      
Averages and records for this station are not official NWS values.
T = Trace of Precipitation, MM = Missing Value Source: NWS Daily Summary

Daily Weather History Graph

Daily Weather History Graph

Search for Another Location

Airport or City:

Trip Planner

Search our weather history database for the weather conditions in past years. The results will help you decide how hot, cold, wet, or windy it might be!

Date:

Astronomy

Oct. 08, 2013 Rise Set
Actual Time 7:23 AM AKDT 6:15 PM AKDT
Civil Twilight 6:44 AM AKDT 6:55 PM AKDT
Nautical Twilight 5:58 AM AKDT 7:40 PM AKDT
Astronomical Twilight 5:10 AM AKDT 8:27 PM AKDT
Moon 12:19 PM AKDT (10/8) 8:04 PM AKDT (10/8)
Length of Visible Light 12h 10m
Length of Day
10h 51m
Waxing Crescent, 17% of the Moon is Illuminated
Oct 8
Waxing Crescent
Oct 11
First Quarter
Oct 18
Full
Oct 26
Last Quarter
Nov 3
New

Hourly Weather History & Observations

Time (AKDT) Temp. Windchill Dew Point Humidity Pressure Visibility Wind Dir Wind Speed Gust Speed Precip Events Conditions
12:16 AM 33.8 °F - 30.2 °F 87% 30.01 in 10.0 mi Calm Calm - N/A   Clear
12:36 AM 33.8 °F - 30.2 °F 87% 30.02 in 10.0 mi Calm Calm - N/A   Clear
12:56 AM 33.8 °F 30.8 °F 30.2 °F 87% 30.03 in 10.0 mi North 3.5 mph - N/A   Clear
1:16 AM 32.0 °F 27.5 °F 30.2 °F 93% 30.04 in 10.0 mi North 4.6 mph - N/A   Clear
1:36 AM 32.0 °F 28.7 °F 30.2 °F 93% 30.04 in 10.0 mi NNW 3.5 mph - N/A   Clear
1:56 AM 32.0 °F - 30.2 °F 93% 30.05 in 10.0 mi Calm Calm - N/A   Clear
2:16 AM 32.0 °F - 30.2 °F 93% 30.05 in 10.0 mi Calm Calm - N/A   Clear
2:36 AM 32.0 °F - 30.2 °F 93% 30.06 in 10.0 mi Calm Calm - N/A   Clear
2:56 AM 32.0 °F - 30.2 °F 93% 30.06 in 10.0 mi Calm Calm - N/A   Clear
3:16 AM 32.0 °F - 30.2 °F 93% 30.07 in 10.0 mi Calm Calm - N/A   Clear
3:36 AM 32.0 °F - 30.2 °F 93% 30.07 in 10.0 mi Calm Calm - N/A   Clear
3:56 AM 32.0 °F - 30.2 °F 93% 30.08 in 10.0 mi Calm Calm - N/A   Scattered Clouds
4:16 AM 32.0 °F - 30.2 °F 93% 30.08 in 10.0 mi Calm Calm - N/A   Scattered Clouds
4:36 AM 32.0 °F - 30.2 °F 93% 30.08 in 10.0 mi Calm Calm - N/A   Mostly Cloudy
4:56 AM 33.8 °F - 32.0 °F 93% 30.07 in 10.0 mi Calm Calm - N/A   Mostly Cloudy
5:16 AM 33.8 °F - 33.8 °F 100% 30.07 in 10.0 mi Calm Calm - N/A   Partly Cloudy
5:36 AM 39.2 °F 34.2 °F 39.2 °F 100% 30.07 in 10.0 mi ESE 6.9 mph - N/A   Clear
5:56 AM 42.8 °F 39.3 °F 41.0 °F 93% 30.07 in 10.0 mi ESE 5.8 mph - N/A   Clear
6:16 AM 42.8 °F 38.0 °F 41.0 °F 93% 30.06 in 10.0 mi ESE 8.1 mph - N/A   Scattered Clouds
6:36 AM 42.8 °F 38.0 °F 41.0 °F 93% 30.06 in 10.0 mi ESE 8.1 mph - N/A   Mostly Cloudy
6:56 AM 44.6 °F 39.2 °F 41.0 °F 87% 30.05 in 10.0 mi SE 10.4 mph - N/A   Mostly Cloudy
7:16 AM 44.6 °F 41.4 °F 42.8 °F 93% 30.05 in 10.0 mi SE 5.8 mph - N/A   Scattered Clouds
7:36 AM 44.6 °F 41.4 °F 42.8 °F 93% 30.05 in 10.0 mi SE 5.8 mph - N/A   Mostly Cloudy
7:56 AM 44.6 °F 41.4 °F 42.8 °F 93% 30.05 in 10.0 mi ESE 5.8 mph - N/A   Overcast
8:16 AM 44.6 °F 41.4 °F 42.8 °F 93% 30.05 in 10.0 mi SE 5.8 mph - N/A   Overcast
8:36 AM 44.6 °F 42.2 °F 42.8 °F 93% 30.05 in 10.0 mi SE 4.6 mph - N/A   Overcast
8:56 AM 44.6 °F 42.2 °F 42.8 °F 93% 30.04 in 10.0 mi ESE 4.6 mph - N/A   Overcast
9:16 AM 44.6 °F 39.7 °F 42.8 °F 93% 30.04 in 10.0 mi SE 9.2 mph - N/A   Overcast
9:36 AM 46.4 °F 43.5 °F 41.0 °F 81% 30.04 in 10.0 mi SE 5.8 mph - N/A   Overcast
9:56 AM 46.4 °F 41.9 °F 42.8 °F 87% 30.03 in 10.0 mi SSE 9.2 mph - N/A   Overcast
10:16 AM 46.4 °F 41.5 °F 42.8 °F 87% 30.03 in 10.0 mi SE 10.4 mph - N/A   Overcast
10:36 AM 46.4 °F 41.9 °F 42.8 °F 87% 30.04 in 10.0 mi East 9.2 mph - N/A   Overcast
10:56 AM 46.4 °F 42.4 °F 42.8 °F 87% 30.03 in 10.0 mi ESE 8.1 mph - N/A   Overcast
11:16 AM 46.4 °F 41.9 °F 42.8 °F 87% 30.03 in 10.0 mi East 9.2 mph - N/A   Overcast
11:36 AM 46.4 °F 43.5 °F 42.8 °F 87% 30.02 in 10.0 mi SE 5.8 mph - N/A   Overcast
11:56 AM 48.2 °F - 42.8 °F 82% 30.02 in 10.0 mi SE 11.5 mph - N/A   Overcast
12:16 PM 48.2 °F - 42.8 °F 82% 30.03 in 10.0 mi SE 10.4 mph - N/A   Overcast
12:36 PM 46.4 °F 41.5 °F 44.6 °F 93% 30.02 in 10.0 mi SE 10.4 mph - N/A   Overcast
12:56 PM 46.4 °F 40.4 °F 44.6 °F 93% 30.01 in 10.0 mi SE 13.8 mph - N/A   Overcast
1:16 PM 48.2 °F - 44.6 °F 87% 30.00 in 10.0 mi SE 12.7 mph 17.3 mph N/A   Overcast
1:36 PM 48.2 °F - 44.6 °F 87% 29.98 in 10.0 mi SE 11.5 mph - N/A   Overcast
1:56 PM 48.2 °F - 44.6 °F 87% 29.98 in 10.0 mi SE 13.8 mph 19.6 mph N/A   Overcast
2:16 PM 48.2 °F - 42.8 °F 82% 29.97 in 10.0 mi SE 15.0 mph - N/A   Overcast
2:36 PM 48.2 °F - 42.8 °F 82% 29.95 in 10.0 mi SE 16.1 mph 19.6 mph N/A   Overcast
2:56 PM 48.2 °F - 42.8 °F 82% 29.94 in 10.0 mi SE 17.3 mph 23.0 mph N/A   Overcast
3:16 PM 48.2 °F - 42.8 °F 82% 29.94 in 10.0 mi SE 17.3 mph 24.2 mph N/A   Overcast
3:36 PM 46.4 °F 39.5 °F 42.8 °F 87% 29.92 in 10.0 mi SE 17.3 mph - N/A   Overcast
3:56 PM 48.2 °F - 42.8 °F 82% 29.91 in 10.0 mi SE 16.1 mph - N/A   Overcast
4:16 PM 48.2 °F - 42.8 °F 82% 29.89 in 10.0 mi SE 17.3 mph 21.9 mph N/A   Overcast
4:36 PM 48.2 °F - 42.8 °F 82% 29.87 in 10.0 mi SE 19.6 mph 26.5 mph N/A   Overcast
4:56 PM 48.2 °F - 42.8 °F 82% 29.85 in 10.0 mi SE 20.7 mph 26.5 mph N/A   Overcast
5:16 PM 48.2 °F - 42.8 °F 82% 29.84 in 10.0 mi SE 20.7 mph 28.8 mph N/A   Overcast
5:36 PM 48.2 °F - 42.8 °F 82% 29.83 in 10.0 mi SE 18.4 mph 26.5 mph N/A   Overcast
5:56 PM 46.4 °F 39.2 °F 42.8 °F 87% 29.81 in 9.0 mi SE 18.4 mph 26.5 mph N/A   Overcast
6:16 PM 46.4 °F 40.1 °F 42.8 °F 87% 29.79 in 10.0 mi SE 15.0 mph 23.0 mph N/A   Overcast
6:36 PM 46.4 °F 39.5 °F 42.8 °F 87% 29.77 in 10.0 mi SE 17.3 mph 27.6 mph N/A   Mostly Cloudy
6:56 PM 48.2 °F - 42.8 °F 82% 29.75 in 10.0 mi SE 18.4 mph 26.5 mph N/A   Overcast
7:16 PM 48.2 °F - 42.8 °F 82% 29.74 in 10.0 mi SE 16.1 mph 25.3 mph N/A   Overcast
7:36 PM 48.2 °F - 42.8 °F 82% 29.72 in 10.0 mi SE 16.1 mph 24.2 mph N/A   Overcast
7:56 PM 48.2 °F - 44.6 °F 87% 29.70 in 10.0 mi SE 15.0 mph 21.9 mph N/A   Overcast
8:16 PM 48.2 °F - 44.6 °F 87% 29.68 in 10.0 mi SE 16.1 mph 24.2 mph N/A   Overcast
8:36 PM 48.2 °F - 44.6 °F 87% 29.66 in 10.0 mi SE 13.8 mph - N/A   Overcast
8:56 PM 48.2 °F - 44.6 °F 87% 29.64 in 10.0 mi SE 13.8 mph 23.0 mph N/A   Overcast
9:16 PM 48.2 °F - 44.6 °F 87% 29.61 in 10.0 mi SE 20.7 mph 27.6 mph N/A   Overcast
9:36 PM 50.0 °F - 44.6 °F 82% 29.59 in 10.0 mi SE 18.4 mph 21.9 mph N/A   Overcast
9:56 PM 50.0 °F - 44.6 °F 82% 29.57 in 10.0 mi SE 19.6 mph 27.6 mph N/A   Mostly Cloudy
10:16 PM 50.0 °F - 44.6 °F 82% 29.54 in 10.0 mi SE 17.3 mph 27.6 mph N/A   Overcast
10:36 PM 50.0 °F - 44.6 °F 82% 29.53 in 10.0 mi SE 18.4 mph 28.8 mph N/A   Overcast
10:56 PM 50.0 °F - 44.6 °F 82% 29.51 in 10.0 mi SE 23.0 mph 32.2 mph N/A   Overcast
11:16 PM 48.2 °F - 44.6 °F 87% 29.48 in 10.0 mi SE 25.3 mph 32.2 mph N/A   Overcast
11:36 PM 48.2 °F - 44.6 °F 87% 29.45 in 10.0 mi SE 25.3 mph 36.8 mph N/A   Overcast
11:56 PM 48.2 °F - 44.6 °F 87% 29.43 in 10.0 mi SE 26.5 mph 35.7 mph N/A   Overcast